Location: Deerlick Astronomy Village
(33.5614°N, 82.7631°W)
Time: 03:40:59
(UTC-04:00)

Iridium 66 - Visible Passes

Search period start: 23 April 2014 00:00
Search period end: 03 May 2014 00:00
Orbit: 776 x 779 km, 86.4° (Epoch: 22 April)

Date Brightness Start Highest point End Pass type
(mag) Time Alt. Az. Time Alt. Az. Time Alt. Az.
23 Apr 6.7 21:26:41 10° NNE 21:31:25 34° E 21:32:50 29° ESE visible
23 Apr 8.1 23:08:00 10° NW 23:11:50 21° W 23:13:20 19° WSW visible
24 Apr 7.5 20:54:12 10° NE 20:57:41 18° E 20:59:54 14° ESE visible
24 Apr 7.1 22:33:41 10° NNW 22:38:31 41° W 22:40:25 30° SW visible
25 Apr 6.0 21:59:53 10° N 22:05:06 81° W 22:07:31 33° S visible
26 Apr 6.2 21:26:30 10° N 21:31:34 51° E 21:34:40 23° SSE visible
26 Apr 8.7 23:09:07 10° NW 23:11:44 14° W 23:14:22 10° WSW visible
27 Apr 7.0 20:53:34 10° NNE 20:57:55 27° E 21:01:50 12° SE visible
27 Apr 7.9 22:34:10 10° NNW 22:38:30 27° W 22:42:21 12° SW visible
28 Apr 6.7 22:00:05 10° NNW 22:05:09 53° W 22:09:34 14° SSW visible
29 Apr 5.9 21:26:28 10° N 21:31:41 78° E 21:36:49 10° S visible
30 Apr 6.5 20:53:14 10° NNE 20:58:06 39° E 21:02:56 10° SSE visible
30 Apr 8.5 22:34:56 10° NW 22:38:26 19° W 22:41:55 10° SW visible
01 May 7.5 22:00:26 10° NNW 22:05:09 35° W 22:09:50 10° SSW visible
02 May 6.3 21:26:33 10° N 21:31:45 70° W 21:36:54 10° S visible
